Location: Unspecified
(41.9031°N, 12.4386°E)
Time: 17:53:25
(UTC+02:00)

ISS - Pass Details

Date: 26 May 2020
Orbit: 417 x 420 km, 51.6° (Epoch: 26 May)

Event Time Altitude Azimuth Distance (km) Brightness Sun altitude
Rises 23:57:09 0° 307° (NW) 2,367 0.9 -24.9°
Reaches altitude 10° 23:59:17 10° 312° (NW) 1,502 -0.2 -25.0°
Enters shadow 00:01:21 32° 330° (NNW) 746 -2.0 -25.1°
